<?xml version="1.0" encoding="UTF-8" standalone="no" ?>
<gpx xmlns="http://www.topografix.com/GPX/1/1" xmlns:xsi="http://www.w3.org/2001/XMLSchema-instance" xsi:schemaLocation="http://www.topografix.com/GPX/1/1 http://www.topografix.com/GPX/1/1/gpx.xsd" version="1.1" creator="VisuGPX - https://www.visugpx.com">
  <metadata>
    <name>Rieux_ValdeVilaine_20-23km</name>
    <desc><![CDATA[gnerando idor:6533441_10496627]]></desc>
  </metadata>
  <trk>
    <name><![CDATA[Rieux_ValDeVilaineVariante_20.3km-6533441]]></name>
    <extensions>
      <line xmlns="http://www.topografix.com/GPX/gpx_style/0/2">
        <color>0000FF</color>
        <width>4</width>
      </line>
    </extensions>
    <trkseg>
      <trkpt lat="47.59828" lon="-2.09876">
        <ele>8</ele>
        <time>2023-11-11T19:08:32Z</time>
      </trkpt>
      <trkpt lat="47.59815" lon="-2.09897">
        <ele>7</ele>
        <time>2023-11-11T19:08:58Z</time>
      </trkpt>
      <trkpt lat="47.5981" lon="-2.09923">
        <ele>6</ele>
        <time>2023-11-11T19:09:22Z</time>
      </trkpt>
      <trkpt lat="47.5981" lon="-2.0995">
        <ele>7</ele>
        <time>2023-11-11T19:09:46Z</time>
      </trkpt>
      <trkpt lat="47.59816" lon="-2.09976">
        <ele>8</ele>
        <time>2023-11-11T19:10:11Z</time>
      </trkpt>
      <trkpt lat="47.59804" lon="-2.09995">
        <ele>8</ele>
        <time>2023-11-11T19:10:34Z</time>
      </trkpt>
      <trkpt lat="47.59786" lon="-2.10004">
        <ele>7</ele>
        <time>2023-11-11T19:11:00Z</time>
      </trkpt>
      <trkpt lat="47.59763" lon="-2.10046">
        <ele>6</ele>
        <time>2023-11-11T19:11:48Z</time>
      </trkpt>
      <trkpt lat="47.59756" lon="-2.10072">
        <ele>6</ele>
        <time>2023-11-11T19:12:14Z</time>
      </trkpt>
      <trkpt lat="47.59741" lon="-2.10087">
        <ele>6</ele>
        <time>2023-11-11T19:12:38Z</time>
      </trkpt>
      <trkpt lat="47.59732" lon="-2.10113">
        <ele>6</ele>
        <time>2023-11-11T19:13:04Z</time>
      </trkpt>
      <trkpt lat="47.59717" lon="-2.1013">
        <ele>6</ele>
        <time>2023-11-11T19:13:29Z</time>
      </trkpt>
      <trkpt lat="47.59707" lon="-2.10183">
        <ele>7</ele>
        <time>2023-11-11T19:14:19Z</time>
      </trkpt>
      <trkpt lat="47.59713" lon="-2.10211">
        <ele>8</ele>
        <time>2023-11-11T19:14:45Z</time>
      </trkpt>
      <trkpt lat="47.59714" lon="-2.10267">
        <ele>9</ele>
        <time>2023-11-11T19:15:36Z</time>
      </trkpt>
      <trkpt lat="47.59709" lon="-2.10294">
        <ele>9</ele>
        <time>2023-11-11T19:16:01Z</time>
      </trkpt>
      <trkpt lat="47.59688" lon="-2.10369">
        <ele>8</ele>
        <time>2023-11-11T19:17:14Z</time>
      </trkpt>
      <trkpt lat="47.597" lon="-2.1039">
        <ele>9</ele>
        <time>2023-11-11T19:17:39Z</time>
      </trkpt>
      <trkpt lat="47.59707" lon="-2.10416">
        <ele>10</ele>
        <time>2023-11-11T19:18:04Z</time>
      </trkpt>
      <trkpt lat="47.59684" lon="-2.10458">
        <ele>10</ele>
        <time>2023-11-11T19:18:53Z</time>
      </trkpt>
      <trkpt lat="47.59667" lon="-2.10471">
        <ele>9</ele>
        <time>2023-11-11T19:19:18Z</time>
      </trkpt>
      <trkpt lat="47.59631" lon="-2.10464">
        <ele>10</ele>
        <time>2023-11-11T19:20:07Z</time>
      </trkpt>
      <trkpt lat="47.5952" lon="-2.10428">
        <ele>11</ele>
        <time>2023-11-11T19:22:38Z</time>
      </trkpt>
      <trkpt lat="47.59484" lon="-2.10413">
        <ele>9</ele>
        <time>2023-11-11T19:23:28Z</time>
      </trkpt>
      <trkpt lat="47.59465" lon="-2.10412">
        <ele>8</ele>
        <time>2023-11-11T19:23:53Z</time>
      </trkpt>
      <trkpt lat="47.59412" lon="-2.1043">
        <ele>7</ele>
        <time>2023-11-11T19:25:06Z</time>
      </trkpt>
      <trkpt lat="47.59374" lon="-2.1044">
        <ele>6</ele>
        <time>2023-11-11T19:25:58Z</time>
      </trkpt>
      <trkpt lat="47.59342" lon="-2.10468">
        <ele>6</ele>
        <time>2023-11-11T19:26:47Z</time>
      </trkpt>
      <trkpt lat="47.59334" lon="-2.10492">
        <ele>7</ele>
        <time>2023-11-11T19:27:11Z</time>
      </trkpt>
      <trkpt lat="47.5933" lon="-2.1052">
        <ele>9</ele>
        <time>2023-11-11T19:27:37Z</time>
      </trkpt>
      <trkpt lat="47.59314" lon="-2.10534">
        <ele>10</ele>
        <time>2023-11-11T19:28:02Z</time>
      </trkpt>
      <trkpt lat="47.59279" lon="-2.10554">
        <ele>10</ele>
        <time>2023-11-11T19:28:52Z</time>
      </trkpt>
      <trkpt lat="47.59244" lon="-2.10571">
        <ele>10</ele>
        <time>2023-11-11T19:29:41Z</time>
      </trkpt>
      <trkpt lat="47.59225" lon="-2.10576">
        <ele>8</ele>
        <time>2023-11-11T19:30:07Z</time>
      </trkpt>
      <trkpt lat="47.59191" lon="-2.10641">
        <ele>8</ele>
        <time>2023-11-11T19:31:21Z</time>
      </trkpt>
      <trkpt lat="47.5915" lon="-2.10764">
        <ele>14</ele>
        <time>2023-11-11T19:33:24Z</time>
      </trkpt>
      <trkpt lat="47.59131" lon="-2.10766">
        <ele>13</ele>
        <time>2023-11-11T19:33:50Z</time>
      </trkpt>
      <trkpt lat="47.59095" lon="-2.10778">
        <ele>12</ele>
        <time>2023-11-11T19:34:39Z</time>
      </trkpt>
      <trkpt lat="47.59039" lon="-2.10779">
        <ele>13</ele>
        <time>2023-11-11T19:35:54Z</time>
      </trkpt>
      <trkpt lat="47.59022" lon="-2.1077">
        <ele>13</ele>
        <time>2023-11-11T19:36:18Z</time>
      </trkpt>
      <trkpt lat="47.58998" lon="-2.10696">
        <ele>13</ele>
        <time>2023-11-11T19:37:32Z</time>
      </trkpt>
      <trkpt lat="47.58962" lon="-2.10678">
        <ele>11</ele>
        <time>2023-11-11T19:38:22Z</time>
      </trkpt>
      <trkpt lat="47.58945" lon="-2.10672">
        <ele>11</ele>
        <time>2023-11-11T19:38:46Z</time>
      </trkpt>
      <trkpt lat="47.58926" lon="-2.10673">
        <ele>10</ele>
        <time>2023-11-11T19:39:11Z</time>
      </trkpt>
      <trkpt lat="47.58907" lon="-2.10669">
        <ele>9</ele>
        <time>2023-11-11T19:39:37Z</time>
      </trkpt>
      <trkpt lat="47.58851" lon="-2.1067">
        <ele>7</ele>
        <time>2023-11-11T19:40:51Z</time>
      </trkpt>
      <trkpt lat="47.58796" lon="-2.10683">
        <ele>7</ele>
        <time>2023-11-11T19:42:06Z</time>
      </trkpt>
      <trkpt lat="47.58722" lon="-2.10694">
        <ele>7</ele>
        <time>2023-11-11T19:43:45Z</time>
      </trkpt>
      <trkpt lat="47.58688" lon="-2.10717">
        <ele>7</ele>
        <time>2023-11-11T19:44:35Z</time>
      </trkpt>
      <trkpt lat="47.58657" lon="-2.10744">
        <ele>7</ele>
        <time>2023-11-11T19:45:23Z</time>
      </trkpt>
      <trkpt lat="47.58639" lon="-2.10756">
        <ele>6</ele>
        <time>2023-11-11T19:45:49Z</time>
      </trkpt>
      <trkpt lat="47.58607" lon="-2.10785">
        <ele>5</ele>
        <time>2023-11-11T19:46:39Z</time>
      </trkpt>
      <trkpt lat="47.58557" lon="-2.10821">
        <ele>4</ele>
        <time>2023-11-11T19:47:53Z</time>
      </trkpt>
      <trkpt lat="47.58542" lon="-2.10837">
        <ele>4</ele>
        <time>2023-11-11T19:48:18Z</time>
      </trkpt>
      <trkpt lat="47.58546" lon="-2.10892">
        <ele>4</ele>
        <time>2023-11-11T19:49:08Z</time>
      </trkpt>
      <trkpt lat="47.58554" lon="-2.10947">
        <ele>4</ele>
        <time>2023-11-11T19:49:58Z</time>
      </trkpt>
      <trkpt lat="47.58555" lon="-2.10974">
        <ele>4</ele>
        <time>2023-11-11T19:50:23Z</time>
      </trkpt>
      <trkpt lat="47.58552" lon="-2.11001">
        <ele>4</ele>
        <time>2023-11-11T19:50:47Z</time>
      </trkpt>
      <trkpt lat="47.58568" lon="-2.1105">
        <ele>5</ele>
        <time>2023-11-11T19:51:36Z</time>
      </trkpt>
      <trkpt lat="47.58642" lon="-2.11036">
        <ele>8</ele>
        <time>2023-11-11T19:53:16Z</time>
      </trkpt>
      <trkpt lat="47.58659" lon="-2.11046">
        <ele>9</ele>
        <time>2023-11-11T19:53:40Z</time>
      </trkpt>
      <trkpt lat="47.58672" lon="-2.11065">
        <ele>9</ele>
        <time>2023-11-11T19:54:05Z</time>
      </trkpt>
      <trkpt lat="47.58688" lon="-2.11173">
        <ele>9</ele>
        <time>2023-11-11T19:55:44Z</time>
      </trkpt>
      <trkpt lat="47.58702" lon="-2.11309">
        <ele>7</ele>
        <time>2023-11-11T19:57:48Z</time>
      </trkpt>
      <trkpt lat="47.58727" lon="-2.11496">
        <ele>6</ele>
        <time>2023-11-11T20:00:40Z</time>
      </trkpt>
      <trkpt lat="47.58732" lon="-2.11524">
        <ele>6</ele>
        <time>2023-11-11T20:01:06Z</time>
      </trkpt>
      <trkpt lat="47.5874" lon="-2.11548">
        <ele>6</ele>
        <time>2023-11-11T20:01:30Z</time>
      </trkpt>
      <trkpt lat="47.58755" lon="-2.11563">
        <ele>7</ele>
        <time>2023-11-11T20:01:54Z</time>
      </trkpt>
      <trkpt lat="47.58773" lon="-2.11568">
        <ele>8</ele>
        <time>2023-11-11T20:02:18Z</time>
      </trkpt>
      <trkpt lat="47.58792" lon="-2.11567">
        <ele>9</ele>
        <time>2023-11-11T20:02:44Z</time>
      </trkpt>
      <trkpt lat="47.5881" lon="-2.11561">
        <ele>10</ele>
        <time>2023-11-11T20:03:08Z</time>
      </trkpt>
      <trkpt lat="47.58847" lon="-2.11558">
        <ele>13</ele>
        <time>2023-11-11T20:03:58Z</time>
      </trkpt>
      <trkpt lat="47.5886" lon="-2.11577">
        <ele>13</ele>
        <time>2023-11-11T20:04:22Z</time>
      </trkpt>
      <trkpt lat="47.58864" lon="-2.1166">
        <ele>10</ele>
        <time>2023-11-11T20:05:37Z</time>
      </trkpt>
      <trkpt lat="47.58874" lon="-2.11713">
        <ele>10</ele>
        <time>2023-11-11T20:06:27Z</time>
      </trkpt>
      <trkpt lat="47.58887" lon="-2.11821">
        <ele>8</ele>
        <time>2023-11-11T20:08:05Z</time>
      </trkpt>
      <trkpt lat="47.58901" lon="-2.11901">
        <ele>7</ele>
        <time>2023-11-11T20:09:20Z</time>
      </trkpt>
      <trkpt lat="47.58909" lon="-2.11983">
        <ele>5</ele>
        <time>2023-11-11T20:10:34Z</time>
      </trkpt>
      <trkpt lat="47.58919" lon="-2.12005">
        <ele>5</ele>
        <time>2023-11-11T20:10:58Z</time>
      </trkpt>
      <trkpt lat="47.58938" lon="-2.12007">
        <ele>5</ele>
        <time>2023-11-11T20:11:24Z</time>
      </trkpt>
      <trkpt lat="47.58955" lon="-2.12014">
        <ele>5</ele>
        <time>2023-11-11T20:11:47Z</time>
      </trkpt>
      <trkpt lat="47.58941" lon="-2.12065">
        <ele>4</ele>
        <time>2023-11-11T20:12:37Z</time>
      </trkpt>
      <trkpt lat="47.58912" lon="-2.12134">
        <ele>3</ele>
        <time>2023-11-11T20:13:50Z</time>
      </trkpt>
      <trkpt lat="47.58906" lon="-2.1216">
        <ele>4</ele>
        <time>2023-11-11T20:14:15Z</time>
      </trkpt>
      <trkpt lat="47.58904" lon="-2.12187">
        <ele>4</ele>
        <time>2023-11-11T20:14:39Z</time>
      </trkpt>
      <trkpt lat="47.58906" lon="-2.12214">
        <ele>4</ele>
        <time>2023-11-11T20:15:03Z</time>
      </trkpt>
      <trkpt lat="47.58969" lon="-2.12445">
        <ele>4</ele>
        <time>2023-11-11T20:18:48Z</time>
      </trkpt>
      <trkpt lat="47.58973" lon="-2.12471">
        <ele>4</ele>
        <time>2023-11-11T20:19:12Z</time>
      </trkpt>
      <trkpt lat="47.58975" lon="-2.12527">
        <ele>4</ele>
        <time>2023-11-11T20:20:02Z</time>
      </trkpt>
      <trkpt lat="47.58981" lon="-2.12581">
        <ele>5</ele>
        <time>2023-11-11T20:20:51Z</time>
      </trkpt>
      <trkpt lat="47.58974" lon="-2.12635">
        <ele>5</ele>
        <time>2023-11-11T20:21:41Z</time>
      </trkpt>
      <trkpt lat="47.58981" lon="-2.12689">
        <ele>4</ele>
        <time>2023-11-11T20:22:30Z</time>
      </trkpt>
      <trkpt lat="47.58976" lon="-2.12743">
        <ele>3</ele>
        <time>2023-11-11T20:23:20Z</time>
      </trkpt>
      <trkpt lat="47.58978" lon="-2.12772">
        <ele>3</ele>
        <time>2023-11-11T20:23:46Z</time>
      </trkpt>
      <trkpt lat="47.58991" lon="-2.12823">
        <ele>4</ele>
        <time>2023-11-11T20:24:35Z</time>
      </trkpt>
      <trkpt lat="47.59001" lon="-2.12848">
        <ele>4</ele>
        <time>2023-11-11T20:25:01Z</time>
      </trkpt>
      <trkpt lat="47.59033" lon="-2.12913">
        <ele>6</ele>
        <time>2023-11-11T20:26:13Z</time>
      </trkpt>
      <trkpt lat="47.59038" lon="-2.1294">
        <ele>6</ele>
        <time>2023-11-11T20:26:39Z</time>
      </trkpt>
      <trkpt lat="47.59031" lon="-2.12965">
        <ele>6</ele>
        <time>2023-11-11T20:27:03Z</time>
      </trkpt>
      <trkpt lat="47.59009" lon="-2.13008">
        <ele>5</ele>
        <time>2023-11-11T20:27:52Z</time>
      </trkpt>
      <trkpt lat="47.59" lon="-2.13032">
        <ele>4</ele>
        <time>2023-11-11T20:28:16Z</time>
      </trkpt>
      <trkpt lat="47.58986" lon="-2.1311">
        <ele>3</ele>
        <time>2023-11-11T20:29:29Z</time>
      </trkpt>
      <trkpt lat="47.58997" lon="-2.13162">
        <ele>4</ele>
        <time>2023-11-11T20:30:18Z</time>
      </trkpt>
      <trkpt lat="47.59005" lon="-2.13188">
        <ele>5</ele>
        <time>2023-11-11T20:30:44Z</time>
      </trkpt>
      <trkpt lat="47.59026" lon="-2.13233">
        <ele>7</ele>
        <time>2023-11-11T20:31:33Z</time>
      </trkpt>
      <trkpt lat="47.59041" lon="-2.13249">
        <ele>8</ele>
        <time>2023-11-11T20:31:58Z</time>
      </trkpt>
      <trkpt lat="47.59052" lon="-2.13271">
        <ele>9</ele>
        <time>2023-11-11T20:32:22Z</time>
      </trkpt>
      <trkpt lat="47.59055" lon="-2.13298">
        <ele>10</ele>
        <time>2023-11-11T20:32:47Z</time>
      </trkpt>
      <trkpt lat="47.59061" lon="-2.13324">
        <ele>12</ele>
        <time>2023-11-11T20:33:12Z</time>
      </trkpt>
      <trkpt lat="47.59075" lon="-2.13341">
        <ele>14</ele>
        <time>2023-11-11T20:33:36Z</time>
      </trkpt>
      <trkpt lat="47.59091" lon="-2.13355">
        <ele>16</ele>
        <time>2023-11-11T20:34:01Z</time>
      </trkpt>
      <trkpt lat="47.59095" lon="-2.13381">
        <ele>17</ele>
        <time>2023-11-11T20:34:25Z</time>
      </trkpt>
      <trkpt lat="47.59087" lon="-2.13406">
        <ele>18</ele>
        <time>2023-11-11T20:34:49Z</time>
      </trkpt>
      <trkpt lat="47.59082" lon="-2.13433">
        <ele>19</ele>
        <time>2023-11-11T20:35:15Z</time>
      </trkpt>
      <trkpt lat="47.59083" lon="-2.1346">
        <ele>20</ele>
        <time>2023-11-11T20:35:39Z</time>
      </trkpt>
      <trkpt lat="47.59086" lon="-2.13486">
        <ele>21</ele>
        <time>2023-11-11T20:36:03Z</time>
      </trkpt>
      <trkpt lat="47.59098" lon="-2.13539">
        <ele>22</ele>
        <time>2023-11-11T20:36:53Z</time>
      </trkpt>
      <trkpt lat="47.591" lon="-2.13565">
        <ele>23</ele>
        <time>2023-11-11T20:37:17Z</time>
      </trkpt>
      <trkpt lat="47.59112" lon="-2.13616">
        <ele>24</ele>
        <time>2023-11-11T20:38:05Z</time>
      </trkpt>
      <trkpt lat="47.59129" lon="-2.13626">
        <ele>25</ele>
        <time>2023-11-11T20:38:30Z</time>
      </trkpt>
      <trkpt lat="47.59148" lon="-2.1362">
        <ele>25</ele>
        <time>2023-11-11T20:38:56Z</time>
      </trkpt>
      <trkpt lat="47.59202" lon="-2.13598">
        <ele>24</ele>
        <time>2023-11-11T20:40:10Z</time>
      </trkpt>
      <trkpt lat="47.59219" lon="-2.13587">
        <ele>24</ele>
        <time>2023-11-11T20:40:35Z</time>
      </trkpt>
      <trkpt lat="47.59251" lon="-2.1356">
        <ele>24</ele>
        <time>2023-11-11T20:41:24Z</time>
      </trkpt>
      <trkpt lat="47.59305" lon="-2.13546">
        <ele>24</ele>
        <time>2023-11-11T20:42:37Z</time>
      </trkpt>
      <trkpt lat="47.59341" lon="-2.13542">
        <ele>23</ele>
        <time>2023-11-11T20:43:25Z</time>
      </trkpt>
      <trkpt lat="47.59358" lon="-2.13531">
        <ele>23</ele>
        <time>2023-11-11T20:43:50Z</time>
      </trkpt>
      <trkpt lat="47.59405" lon="-2.13488">
        <ele>23</ele>
        <time>2023-11-11T20:45:04Z</time>
      </trkpt>
      <trkpt lat="47.59419" lon="-2.13471">
        <ele>23</ele>
        <time>2023-11-11T20:45:28Z</time>
      </trkpt>
      <trkpt lat="47.59452" lon="-2.13446">
        <ele>24</ele>
        <time>2023-11-11T20:46:18Z</time>
      </trkpt>
      <trkpt lat="47.5947" lon="-2.13451">
        <ele>24</ele>
        <time>2023-11-11T20:46:42Z</time>
      </trkpt>
      <trkpt lat="47.59498" lon="-2.13521">
        <ele>24</ele>
        <time>2023-11-11T20:47:55Z</time>
      </trkpt>
      <trkpt lat="47.59511" lon="-2.13541">
        <ele>24</ele>
        <time>2023-11-11T20:48:20Z</time>
      </trkpt>
      <trkpt lat="47.59542" lon="-2.13572">
        <ele>25</ele>
        <time>2023-11-11T20:49:10Z</time>
      </trkpt>
      <trkpt lat="47.5956" lon="-2.13582">
        <ele>25</ele>
        <time>2023-11-11T20:49:36Z</time>
      </trkpt>
      <trkpt lat="47.59576" lon="-2.13596">
        <ele>26</ele>
        <time>2023-11-11T20:50:01Z</time>
      </trkpt>
      <trkpt lat="47.59584" lon="-2.13621">
        <ele>26</ele>
        <time>2023-11-11T20:50:25Z</time>
      </trkpt>
      <trkpt lat="47.59586" lon="-2.13649">
        <ele>25</ele>
        <time>2023-11-11T20:50:51Z</time>
      </trkpt>
      <trkpt lat="47.59603" lon="-2.13661">
        <ele>25</ele>
        <time>2023-11-11T20:51:16Z</time>
      </trkpt>
      <trkpt lat="47.59621" lon="-2.13653">
        <ele>24</ele>
        <time>2023-11-11T20:51:41Z</time>
      </trkpt>
      <trkpt lat="47.59658" lon="-2.1366">
        <ele>23</ele>
        <time>2023-11-11T20:52:31Z</time>
      </trkpt>
      <trkpt lat="47.59694" lon="-2.13662">
        <ele>22</ele>
        <time>2023-11-11T20:53:19Z</time>
      </trkpt>
      <trkpt lat="47.59712" lon="-2.13655">
        <ele>22</ele>
        <time>2023-11-11T20:53:44Z</time>
      </trkpt>
      <trkpt lat="47.59731" lon="-2.13651">
        <ele>21</ele>
        <time>2023-11-11T20:54:09Z</time>
      </trkpt>
      <trkpt lat="47.59749" lon="-2.13643">
        <ele>21</ele>
        <time>2023-11-11T20:54:34Z</time>
      </trkpt>
      <trkpt lat="47.59768" lon="-2.13641">
        <ele>20</ele>
        <time>2023-11-11T20:55:00Z</time>
      </trkpt>
      <trkpt lat="47.59786" lon="-2.13636">
        <ele>20</ele>
        <time>2023-11-11T20:55:24Z</time>
      </trkpt>
      <trkpt lat="47.59804" lon="-2.13644">
        <ele>19</ele>
        <time>2023-11-11T20:55:49Z</time>
      </trkpt>
      <trkpt lat="47.59815" lon="-2.13667">
        <ele>18</ele>
        <time>2023-11-11T20:56:15Z</time>
      </trkpt>
      <trkpt lat="47.59813" lon="-2.13696">
        <ele>19</ele>
        <time>2023-11-11T20:56:41Z</time>
      </trkpt>
      <trkpt lat="47.59824" lon="-2.13718">
        <ele>20</ele>
        <time>2023-11-11T20:57:06Z</time>
      </trkpt>
      <trkpt lat="47.59811" lon="-2.13736">
        <ele>20</ele>
        <time>2023-11-11T20:57:29Z</time>
      </trkpt>
      <trkpt lat="47.59792" lon="-2.13745">
        <ele>20</ele>
        <time>2023-11-11T20:57:56Z</time>
      </trkpt>
      <trkpt lat="47.59811" lon="-2.13741">
        <ele>21</ele>
        <time>2023-11-11T20:58:21Z</time>
      </trkpt>
      <trkpt lat="47.59829" lon="-2.13741">
        <ele>21</ele>
        <time>2023-11-11T20:58:46Z</time>
      </trkpt>
      <trkpt lat="47.59842" lon="-2.13761">
        <ele>22</ele>
        <time>2023-11-11T20:59:10Z</time>
      </trkpt>
      <trkpt lat="47.59834" lon="-2.13786">
        <ele>23</ele>
        <time>2023-11-11T20:59:35Z</time>
      </trkpt>
      <trkpt lat="47.59852" lon="-2.13782">
        <ele>23</ele>
        <time>2023-11-11T21:00:00Z</time>
      </trkpt>
      <trkpt lat="47.59926" lon="-2.13797">
        <ele>24</ele>
        <time>2023-11-11T21:01:39Z</time>
      </trkpt>
      <trkpt lat="47.60001" lon="-2.13805">
        <ele>26</ele>
        <time>2023-11-11T21:03:20Z</time>
      </trkpt>
      <trkpt lat="47.60039" lon="-2.13803">
        <ele>28</ele>
        <time>2023-11-11T21:04:10Z</time>
      </trkpt>
      <trkpt lat="47.60059" lon="-2.13805">
        <ele>29</ele>
        <time>2023-11-11T21:04:37Z</time>
      </trkpt>
      <trkpt lat="47.60115" lon="-2.13797">
        <ele>33</ele>
        <time>2023-11-11T21:05:52Z</time>
      </trkpt>
      <trkpt lat="47.60151" lon="-2.13798">
        <ele>37</ele>
        <time>2023-11-11T21:06:40Z</time>
      </trkpt>
      <trkpt lat="47.60162" lon="-2.13821">
        <ele>39</ele>
        <time>2023-11-11T21:07:06Z</time>
      </trkpt>
      <trkpt lat="47.60162" lon="-2.13903">
        <ele>38</ele>
        <time>2023-11-11T21:08:19Z</time>
      </trkpt>
      <trkpt lat="47.60151" lon="-2.13956">
        <ele>36</ele>
        <time>2023-11-11T21:09:09Z</time>
      </trkpt>
      <trkpt lat="47.60097" lon="-2.1413">
        <ele>33</ele>
        <time>2023-11-11T21:12:02Z</time>
      </trkpt>
      <trkpt lat="47.60092" lon="-2.14156">
        <ele>34</ele>
        <time>2023-11-11T21:12:26Z</time>
      </trkpt>
      <trkpt lat="47.60091" lon="-2.14183">
        <ele>35</ele>
        <time>2023-11-11T21:12:50Z</time>
      </trkpt>
      <trkpt lat="47.60113" lon="-2.14399">
        <ele>45</ele>
        <time>2023-11-11T21:16:07Z</time>
      </trkpt>
      <trkpt lat="47.60127" lon="-2.14419">
        <ele>47</ele>
        <time>2023-11-11T21:16:33Z</time>
      </trkpt>
      <trkpt lat="47.60144" lon="-2.14429">
        <ele>49</ele>
        <time>2023-11-11T21:16:57Z</time>
      </trkpt>
      <trkpt lat="47.60166" lon="-2.14472">
        <ele>54</ele>
        <time>2023-11-11T21:17:46Z</time>
      </trkpt>
      <trkpt lat="47.60141" lon="-2.14576">
        <ele>53</ele>
        <time>2023-11-11T21:19:25Z</time>
      </trkpt>
      <trkpt lat="47.60132" lon="-2.146">
        <ele>52</ele>
        <time>2023-11-11T21:19:50Z</time>
      </trkpt>
      <trkpt lat="47.60121" lon="-2.14653">
        <ele>51</ele>
        <time>2023-11-11T21:20:40Z</time>
      </trkpt>
      <trkpt lat="47.60119" lon="-2.1468">
        <ele>51</ele>
        <time>2023-11-11T21:21:04Z</time>
      </trkpt>
      <trkpt lat="47.60128" lon="-2.14735">
        <ele>51</ele>
        <time>2023-11-11T21:21:55Z</time>
      </trkpt>
      <trkpt lat="47.60127" lon="-2.14762">
        <ele>51</ele>
        <time>2023-11-11T21:22:20Z</time>
      </trkpt>
      <trkpt lat="47.60112" lon="-2.14811">
        <ele>51</ele>
        <time>2023-11-11T21:23:08Z</time>
      </trkpt>
      <trkpt lat="47.60113" lon="-2.14838">
        <ele>52</ele>
        <time>2023-11-11T21:23:32Z</time>
      </trkpt>
      <trkpt lat="47.6011" lon="-2.14865">
        <ele>52</ele>
        <time>2023-11-11T21:23:57Z</time>
      </trkpt>
      <trkpt lat="47.60113" lon="-2.14919">
        <ele>53</ele>
        <time>2023-11-11T21:24:46Z</time>
      </trkpt>
      <trkpt lat="47.6011" lon="-2.14974">
        <ele>57</ele>
        <time>2023-11-11T21:25:35Z</time>
      </trkpt>
      <trkpt lat="47.60106" lon="-2.15001">
        <ele>58</ele>
        <time>2023-11-11T21:26:00Z</time>
      </trkpt>
      <trkpt lat="47.60098" lon="-2.15026">
        <ele>58</ele>
        <time>2023-11-11T21:26:25Z</time>
      </trkpt>
      <trkpt lat="47.60096" lon="-2.15053">
        <ele>59</ele>
        <time>2023-11-11T21:26:50Z</time>
      </trkpt>
      <trkpt lat="47.6009" lon="-2.15078">
        <ele>59</ele>
        <time>2023-11-11T21:27:13Z</time>
      </trkpt>
      <trkpt lat="47.60083" lon="-2.15104">
        <ele>59</ele>
        <time>2023-11-11T21:27:39Z</time>
      </trkpt>
      <trkpt lat="47.60072" lon="-2.15128">
        <ele>58</ele>
        <time>2023-11-11T21:28:05Z</time>
      </trkpt>
      <trkpt lat="47.60072" lon="-2.15156">
        <ele>58</ele>
        <time>2023-11-11T21:28:30Z</time>
      </trkpt>
      <trkpt lat="47.60068" lon="-2.15182">
        <ele>57</ele>
        <time>2023-11-11T21:28:54Z</time>
      </trkpt>
      <trkpt lat="47.60054" lon="-2.15199">
        <ele>55</ele>
        <time>2023-11-11T21:29:18Z</time>
      </trkpt>
      <trkpt lat="47.60042" lon="-2.15219">
        <ele>53</ele>
        <time>2023-11-11T21:29:42Z</time>
      </trkpt>
      <trkpt lat="47.60034" lon="-2.15245">
        <ele>52</ele>
        <time>2023-11-11T21:30:08Z</time>
      </trkpt>
      <trkpt lat="47.60041" lon="-2.15326">
        <ele>45</ele>
        <time>2023-11-11T21:31:21Z</time>
      </trkpt>
      <trkpt lat="47.60049" lon="-2.15351">
        <ele>44</ele>
        <time>2023-11-11T21:31:46Z</time>
      </trkpt>
      <trkpt lat="47.60062" lon="-2.15372">
        <ele>43</ele>
        <time>2023-11-11T21:32:12Z</time>
      </trkpt>
      <trkpt lat="47.60072" lon="-2.15394">
        <ele>43</ele>
        <time>2023-11-11T21:32:36Z</time>
      </trkpt>
      <trkpt lat="47.60077" lon="-2.15421">
        <ele>41</ele>
        <time>2023-11-11T21:33:01Z</time>
      </trkpt>
      <trkpt lat="47.60087" lon="-2.15444">
        <ele>41</ele>
        <time>2023-11-11T21:33:26Z</time>
      </trkpt>
      <trkpt lat="47.60105" lon="-2.15438">
        <ele>43</ele>
        <time>2023-11-11T21:33:50Z</time>
      </trkpt>
      <trkpt lat="47.60122" lon="-2.15428">
        <ele>45</ele>
        <time>2023-11-11T21:34:15Z</time>
      </trkpt>
      <trkpt lat="47.60201" lon="-2.15358">
        <ele>51</ele>
        <time>2023-11-11T21:36:17Z</time>
      </trkpt>
      <trkpt lat="47.60219" lon="-2.15346">
        <ele>49</ele>
        <time>2023-11-11T21:36:44Z</time>
      </trkpt>
      <trkpt lat="47.6024" lon="-2.15391">
        <ele>46</ele>
        <time>2023-11-11T21:37:33Z</time>
      </trkpt>
      <trkpt lat="47.60243" lon="-2.15418">
        <ele>45</ele>
        <time>2023-11-11T21:37:58Z</time>
      </trkpt>
      <trkpt lat="47.60255" lon="-2.15439">
        <ele>43</ele>
        <time>2023-11-11T21:38:22Z</time>
      </trkpt>
      <trkpt lat="47.6026" lon="-2.15466">
        <ele>41</ele>
        <time>2023-11-11T21:38:48Z</time>
      </trkpt>
      <trkpt lat="47.60251" lon="-2.1549">
        <ele>41</ele>
        <time>2023-11-11T21:39:12Z</time>
      </trkpt>
      <trkpt lat="47.60239" lon="-2.1551">
        <ele>40</ele>
        <time>2023-11-11T21:39:36Z</time>
      </trkpt>
      <trkpt lat="47.60237" lon="-2.15537">
        <ele>36</ele>
        <time>2023-11-11T21:40:01Z</time>
      </trkpt>
      <trkpt lat="47.6024" lon="-2.15592">
        <ele>29</ele>
        <time>2023-11-11T21:40:50Z</time>
      </trkpt>
      <trkpt lat="47.60233" lon="-2.15618">
        <ele>27</ele>
        <time>2023-11-11T21:41:16Z</time>
      </trkpt>
      <trkpt lat="47.60206" lon="-2.15691">
        <ele>22</ele>
        <time>2023-11-11T21:42:31Z</time>
      </trkpt>
      <trkpt lat="47.60195" lon="-2.15713">
        <ele>21</ele>
        <time>2023-11-11T21:42:55Z</time>
      </trkpt>
      <trkpt lat="47.60181" lon="-2.1573">
        <ele>20</ele>
        <time>2023-11-11T21:43:19Z</time>
      </trkpt>
      <trkpt lat="47.60188" lon="-2.15784">
        <ele>18</ele>
        <time>2023-11-11T21:44:09Z</time>
      </trkpt>
      <trkpt lat="47.60195" lon="-2.15809">
        <ele>18</ele>
        <time>2023-11-11T21:44:33Z</time>
      </trkpt>
      <trkpt lat="47.60286" lon="-2.15806">
        <ele>19</ele>
        <time>2023-11-11T21:46:35Z</time>
      </trkpt>
      <trkpt lat="47.60303" lon="-2.15814">
        <ele>19</ele>
        <time>2023-11-11T21:46:58Z</time>
      </trkpt>
      <trkpt lat="47.60336" lon="-2.15841">
        <ele>19</ele>
        <time>2023-11-11T21:47:49Z</time>
      </trkpt>
      <trkpt lat="47.60354" lon="-2.15845">
        <ele>19</ele>
        <time>2023-11-11T21:48:13Z</time>
      </trkpt>
      <trkpt lat="47.6041" lon="-2.15846">
        <ele>19</ele>
        <time>2023-11-11T21:49:28Z</time>
      </trkpt>
      <trkpt lat="47.60483" lon="-2.15836">
        <ele>21</ele>
        <time>2023-11-11T21:51:06Z</time>
      </trkpt>
      <trkpt lat="47.60501" lon="-2.15838">
        <ele>21</ele>
        <time>2023-11-11T21:51:30Z</time>
      </trkpt>
      <trkpt lat="47.60612" lon="-2.15831">
        <ele>25</ele>
        <time>2023-11-11T21:53:58Z</time>
      </trkpt>
      <trkpt lat="47.60649" lon="-2.15826">
        <ele>27</ele>
        <time>2023-11-11T21:54:48Z</time>
      </trkpt>
      <trkpt lat="47.60686" lon="-2.15815">
        <ele>29</ele>
        <time>2023-11-11T21:55:38Z</time>
      </trkpt>
      <trkpt lat="47.60704" lon="-2.15814">
        <ele>31</ele>
        <time>2023-11-11T21:56:02Z</time>
      </trkpt>
      <trkpt lat="47.60739" lon="-2.15828">
        <ele>33</ele>
        <time>2023-11-11T21:56:50Z</time>
      </trkpt>
      <trkpt lat="47.60758" lon="-2.15829">
        <ele>34</ele>
        <time>2023-11-11T21:57:16Z</time>
      </trkpt>
      <trkpt lat="47.60793" lon="-2.15816">
        <ele>34</ele>
        <time>2023-11-11T21:58:04Z</time>
      </trkpt>
      <trkpt lat="47.60845" lon="-2.15787">
        <ele>34</ele>
        <time>2023-11-11T21:59:18Z</time>
      </trkpt>
      <trkpt lat="47.60916" lon="-2.15761">
        <ele>39</ele>
        <time>2023-11-11T22:00:56Z</time>
      </trkpt>
      <trkpt lat="47.60949" lon="-2.15785">
        <ele>41</ele>
        <time>2023-11-11T22:01:45Z</time>
      </trkpt>
      <trkpt lat="47.60962" lon="-2.15803">
        <ele>42</ele>
        <time>2023-11-11T22:02:08Z</time>
      </trkpt>
      <trkpt lat="47.60967" lon="-2.15856">
        <ele>44</ele>
        <time>2023-11-11T22:02:56Z</time>
      </trkpt>
      <trkpt lat="47.6098" lon="-2.15875">
        <ele>45</ele>
        <time>2023-11-11T22:03:21Z</time>
      </trkpt>
      <trkpt lat="47.60992" lon="-2.15927">
        <ele>47</ele>
        <time>2023-11-11T22:04:10Z</time>
      </trkpt>
      <trkpt lat="47.60986" lon="-2.15952">
        <ele>48</ele>
        <time>2023-11-11T22:04:34Z</time>
      </trkpt>
      <trkpt lat="47.60983" lon="-2.15979">
        <ele>50</ele>
        <time>2023-11-11T22:04:59Z</time>
      </trkpt>
      <trkpt lat="47.60952" lon="-2.16033">
        <ele>50</ele>
        <time>2023-11-11T22:06:03Z</time>
      </trkpt>
      <trkpt lat="47.60966" lon="-2.16014">
        <ele>50</ele>
        <time>2023-11-11T22:06:28Z</time>
      </trkpt>
      <trkpt lat="47.60969" lon="-2.1604">
        <ele>52</ele>
        <time>2023-11-11T22:06:52Z</time>
      </trkpt>
      <trkpt lat="47.60963" lon="-2.16122">
        <ele>52</ele>
        <time>2023-11-11T22:08:06Z</time>
      </trkpt>
      <trkpt lat="47.60969" lon="-2.16148">
        <ele>52</ele>
        <time>2023-11-11T22:08:31Z</time>
      </trkpt>
      <trkpt lat="47.60967" lon="-2.16175">
        <ele>52</ele>
        <time>2023-11-11T22:08:55Z</time>
      </trkpt>
      <trkpt lat="47.6097" lon="-2.16229">
        <ele>53</ele>
        <time>2023-11-11T22:09:44Z</time>
      </trkpt>
      <trkpt lat="47.60966" lon="-2.16284">
        <ele>54</ele>
        <time>2023-11-11T22:10:34Z</time>
      </trkpt>
      <trkpt lat="47.60954" lon="-2.16335">
        <ele>55</ele>
        <time>2023-11-11T22:11:22Z</time>
      </trkpt>
      <trkpt lat="47.60971" lon="-2.16345">
        <ele>56</ele>
        <time>2023-11-11T22:11:47Z</time>
      </trkpt>
      <trkpt lat="47.61007" lon="-2.16358">
        <ele>59</ele>
        <time>2023-11-11T22:12:36Z</time>
      </trkpt>
      <trkpt lat="47.61043" lon="-2.16364">
        <ele>61</ele>
        <time>2023-11-11T22:13:24Z</time>
      </trkpt>
      <trkpt lat="47.61061" lon="-2.1637">
        <ele>62</ele>
        <time>2023-11-11T22:13:49Z</time>
      </trkpt>
      <trkpt lat="47.6108" lon="-2.16372">
        <ele>63</ele>
        <time>2023-11-11T22:14:14Z</time>
      </trkpt>
      <trkpt lat="47.61098" lon="-2.16379">
        <ele>64</ele>
        <time>2023-11-11T22:14:39Z</time>
      </trkpt>
      <trkpt lat="47.61135" lon="-2.16387">
        <ele>66</ele>
        <time>2023-11-11T22:15:29Z</time>
      </trkpt>
      <trkpt lat="47.61153" lon="-2.16387">
        <ele>67</ele>
        <time>2023-11-11T22:15:53Z</time>
      </trkpt>
      <trkpt lat="47.61191" lon="-2.16395">
        <ele>71</ele>
        <time>2023-11-11T22:16:44Z</time>
      </trkpt>
      <trkpt lat="47.61208" lon="-2.16401">
        <ele>73</ele>
        <time>2023-11-11T22:17:08Z</time>
      </trkpt>
      <trkpt lat="47.61245" lon="-2.16403">
        <ele>78</ele>
        <time>2023-11-11T22:17:57Z</time>
      </trkpt>
      <trkpt lat="47.61283" lon="-2.16412">
        <ele>78</ele>
        <time>2023-11-11T22:18:48Z</time>
      </trkpt>
      <trkpt lat="47.61301" lon="-2.16413">
        <ele>78</ele>
        <time>2023-11-11T22:19:12Z</time>
      </trkpt>
      <trkpt lat="47.61305" lon="-2.16386">
        <ele>77</ele>
        <time>2023-11-11T22:19:37Z</time>
      </trkpt>
      <trkpt lat="47.613" lon="-2.1636">
        <ele>77</ele>
        <time>2023-11-11T22:20:02Z</time>
      </trkpt>
      <trkpt lat="47.61296" lon="-2.16304">
        <ele>77</ele>
        <time>2023-11-11T22:20:52Z</time>
      </trkpt>
      <trkpt lat="47.61291" lon="-2.16278">
        <ele>77</ele>
        <time>2023-11-11T22:21:17Z</time>
      </trkpt>
      <trkpt lat="47.61289" lon="-2.16251">
        <ele>77</ele>
        <time>2023-11-11T22:21:41Z</time>
      </trkpt>
      <trkpt lat="47.61291" lon="-2.16222">
        <ele>77</ele>
        <time>2023-11-11T22:22:07Z</time>
      </trkpt>
      <trkpt lat="47.61296" lon="-2.16196">
        <ele>76</ele>
        <time>2023-11-11T22:22:32Z</time>
      </trkpt>
      <trkpt lat="47.61294" lon="-2.16168">
        <ele>76</ele>
        <time>2023-11-11T22:22:57Z</time>
      </trkpt>
      <trkpt lat="47.61299" lon="-2.16115">
        <ele>75</ele>
        <time>2023-11-11T22:23:45Z</time>
      </trkpt>
      <trkpt lat="47.61306" lon="-2.16089">
        <ele>74</ele>
        <time>2023-11-11T22:24:10Z</time>
      </trkpt>
      <trkpt lat="47.61338" lon="-2.16118">
        <ele>75</ele>
        <time>2023-11-11T22:25:00Z</time>
      </trkpt>
      <trkpt lat="47.61351" lon="-2.16136">
        <ele>76</ele>
        <time>2023-11-11T22:25:24Z</time>
      </trkpt>
      <trkpt lat="47.61398" lon="-2.1618">
        <ele>78</ele>
        <time>2023-11-11T22:26:38Z</time>
      </trkpt>
      <trkpt lat="47.61425" lon="-2.16216">
        <ele>80</ele>
        <time>2023-11-11T22:27:27Z</time>
      </trkpt>
      <trkpt lat="47.61442" lon="-2.16226">
        <ele>80</ele>
        <time>2023-11-11T22:27:51Z</time>
      </trkpt>
      <trkpt lat="47.61489" lon="-2.16266">
        <ele>80</ele>
        <time>2023-11-11T22:29:03Z</time>
      </trkpt>
      <trkpt lat="47.61524" lon="-2.16289">
        <ele>79</ele>
        <time>2023-11-11T22:29:54Z</time>
      </trkpt>
      <trkpt lat="47.61542" lon="-2.16296">
        <ele>77</ele>
        <time>2023-11-11T22:30:19Z</time>
      </trkpt>
      <trkpt lat="47.6156" lon="-2.16299">
        <ele>76</ele>
        <time>2023-11-11T22:30:43Z</time>
      </trkpt>
      <trkpt lat="47.6158" lon="-2.16165">
        <ele>74</ele>
        <time>2023-11-11T22:32:47Z</time>
      </trkpt>
      <trkpt lat="47.61592" lon="-2.16113">
        <ele>74</ele>
        <time>2023-11-11T22:33:36Z</time>
      </trkpt>
      <trkpt lat="47.61606" lon="-2.16006">
        <ele>76</ele>
        <time>2023-11-11T22:35:14Z</time>
      </trkpt>
      <trkpt lat="47.61624" lon="-2.16">
        <ele>76</ele>
        <time>2023-11-11T22:35:39Z</time>
      </trkpt>
      <trkpt lat="47.61777" lon="-2.16101">
        <ele>72</ele>
        <time>2023-11-11T22:39:22Z</time>
      </trkpt>
      <trkpt lat="47.61805" lon="-2.16137">
        <ele>74</ele>
        <time>2023-11-11T22:40:12Z</time>
      </trkpt>
      <trkpt lat="47.61817" lon="-2.16159">
        <ele>76</ele>
        <time>2023-11-11T22:40:37Z</time>
      </trkpt>
      <trkpt lat="47.61866" lon="-2.16276">
        <ele>77</ele>
        <time>2023-11-11T22:42:41Z</time>
      </trkpt>
      <trkpt lat="47.61875" lon="-2.16301">
        <ele>76</ele>
        <time>2023-11-11T22:43:07Z</time>
      </trkpt>
      <trkpt lat="47.61905" lon="-2.16429">
        <ele>72</ele>
        <time>2023-11-11T22:45:09Z</time>
      </trkpt>
      <trkpt lat="47.61935" lon="-2.16498">
        <ele>72</ele>
        <time>2023-11-11T22:46:23Z</time>
      </trkpt>
      <trkpt lat="47.61947" lon="-2.16519">
        <ele>72</ele>
        <time>2023-11-11T22:46:47Z</time>
      </trkpt>
      <trkpt lat="47.61979" lon="-2.16546">
        <ele>74</ele>
        <time>2023-11-11T22:47:36Z</time>
      </trkpt>
      <trkpt lat="47.62047" lon="-2.16587">
        <ele>76</ele>
        <time>2023-11-11T22:49:14Z</time>
      </trkpt>
      <trkpt lat="47.62101" lon="-2.16611">
        <ele>76</ele>
        <time>2023-11-11T22:50:30Z</time>
      </trkpt>
      <trkpt lat="47.62118" lon="-2.16622">
        <ele>75</ele>
        <time>2023-11-11T22:50:54Z</time>
      </trkpt>
      <trkpt lat="47.62136" lon="-2.16616">
        <ele>74</ele>
        <time>2023-11-11T22:51:19Z</time>
      </trkpt>
      <trkpt lat="47.62176" lon="-2.16557">
        <ele>73</ele>
        <time>2023-11-11T22:52:34Z</time>
      </trkpt>
      <trkpt lat="47.62199" lon="-2.16515">
        <ele>73</ele>
        <time>2023-11-11T22:53:23Z</time>
      </trkpt>
      <trkpt lat="47.6224" lon="-2.16461">
        <ele>73</ele>
        <time>2023-11-11T22:54:36Z</time>
      </trkpt>
      <trkpt lat="47.62273" lon="-2.16434">
        <ele>71</ele>
        <time>2023-11-11T22:55:26Z</time>
      </trkpt>
      <trkpt lat="47.62285" lon="-2.16411">
        <ele>71</ele>
        <time>2023-11-11T22:55:53Z</time>
      </trkpt>
      <trkpt lat="47.62301" lon="-2.16397">
        <ele>70</ele>
        <time>2023-11-11T22:56:17Z</time>
      </trkpt>
      <trkpt lat="47.62319" lon="-2.16396">
        <ele>70</ele>
        <time>2023-11-11T22:56:41Z</time>
      </trkpt>
      <trkpt lat="47.62374" lon="-2.16411">
        <ele>69</ele>
        <time>2023-11-11T22:57:56Z</time>
      </trkpt>
      <trkpt lat="47.62393" lon="-2.1641">
        <ele>69</ele>
        <time>2023-11-11T22:58:21Z</time>
      </trkpt>
      <trkpt lat="47.62461" lon="-2.16372">
        <ele>67</ele>
        <time>2023-11-11T22:59:58Z</time>
      </trkpt>
      <trkpt lat="47.62515" lon="-2.16347">
        <ele>67</ele>
        <time>2023-11-11T23:01:14Z</time>
      </trkpt>
      <trkpt lat="47.62502" lon="-2.16328">
        <ele>67</ele>
        <time>2023-11-11T23:01:38Z</time>
      </trkpt>
      <trkpt lat="47.62447" lon="-2.16331">
        <ele>68</ele>
        <time>2023-11-11T23:02:52Z</time>
      </trkpt>
      <trkpt lat="47.62409" lon="-2.16326">
        <ele>69</ele>
        <time>2023-11-11T23:03:42Z</time>
      </trkpt>
      <trkpt lat="47.62379" lon="-2.16294">
        <ele>70</ele>
        <time>2023-11-11T23:04:32Z</time>
      </trkpt>
      <trkpt lat="47.62302" lon="-2.16176">
        <ele>72</ele>
        <time>2023-11-11T23:07:00Z</time>
      </trkpt>
      <trkpt lat="47.62269" lon="-2.16147">
        <ele>72</ele>
        <time>2023-11-11T23:07:51Z</time>
      </trkpt>
      <trkpt lat="47.62257" lon="-2.16127">
        <ele>72</ele>
        <time>2023-11-11T23:08:15Z</time>
      </trkpt>
      <trkpt lat="47.62248" lon="-2.16103">
        <ele>73</ele>
        <time>2023-11-11T23:08:39Z</time>
      </trkpt>
      <trkpt lat="47.62231" lon="-2.1609">
        <ele>72</ele>
        <time>2023-11-11T23:09:05Z</time>
      </trkpt>
      <trkpt lat="47.62207" lon="-2.1605">
        <ele>71</ele>
        <time>2023-11-11T23:09:53Z</time>
      </trkpt>
      <trkpt lat="47.62175" lon="-2.16023">
        <ele>71</ele>
        <time>2023-11-11T23:10:42Z</time>
      </trkpt>
      <trkpt lat="47.62167" lon="-2.15998">
        <ele>71</ele>
        <time>2023-11-11T23:11:07Z</time>
      </trkpt>
      <trkpt lat="47.62141" lon="-2.15958">
        <ele>74</ele>
        <time>2023-11-11T23:11:57Z</time>
      </trkpt>
      <trkpt lat="47.62126" lon="-2.15943">
        <ele>75</ele>
        <time>2023-11-11T23:12:21Z</time>
      </trkpt>
      <trkpt lat="47.62099" lon="-2.15904">
        <ele>76</ele>
        <time>2023-11-11T23:13:12Z</time>
      </trkpt>
      <trkpt lat="47.6209" lon="-2.15882">
        <ele>76</ele>
        <time>2023-11-11T23:13:35Z</time>
      </trkpt>
      <trkpt lat="47.6206" lon="-2.15848">
        <ele>75</ele>
        <time>2023-11-11T23:14:25Z</time>
      </trkpt>
      <trkpt lat="47.62023" lon="-2.15787">
        <ele>76</ele>
        <time>2023-11-11T23:15:39Z</time>
      </trkpt>
      <trkpt lat="47.62008" lon="-2.15771">
        <ele>76</ele>
        <time>2023-11-11T23:16:04Z</time>
      </trkpt>
      <trkpt lat="47.62001" lon="-2.15746">
        <ele>77</ele>
        <time>2023-11-11T23:16:28Z</time>
      </trkpt>
      <trkpt lat="47.61988" lon="-2.15726">
        <ele>77</ele>
        <time>2023-11-11T23:16:53Z</time>
      </trkpt>
      <trkpt lat="47.61974" lon="-2.15708">
        <ele>76</ele>
        <time>2023-11-11T23:17:18Z</time>
      </trkpt>
      <trkpt lat="47.61955" lon="-2.15707">
        <ele>77</ele>
        <time>2023-11-11T23:17:43Z</time>
      </trkpt>
      <trkpt lat="47.61916" lon="-2.15648">
        <ele>79</ele>
        <time>2023-11-11T23:18:57Z</time>
      </trkpt>
      <trkpt lat="47.61887" lon="-2.15612">
        <ele>81</ele>
        <time>2023-11-11T23:19:48Z</time>
      </trkpt>
      <trkpt lat="47.61878" lon="-2.15589">
        <ele>82</ele>
        <time>2023-11-11T23:20:12Z</time>
      </trkpt>
      <trkpt lat="47.61851" lon="-2.15551">
        <ele>83</ele>
        <time>2023-11-11T23:21:01Z</time>
      </trkpt>
      <trkpt lat="47.61836" lon="-2.15536">
        <ele>83</ele>
        <time>2023-11-11T23:21:26Z</time>
      </trkpt>
      <trkpt lat="47.61796" lon="-2.15478">
        <ele>83</ele>
        <time>2023-11-11T23:22:40Z</time>
      </trkpt>
      <trkpt lat="47.61781" lon="-2.15461">
        <ele>83</ele>
        <time>2023-11-11T23:23:05Z</time>
      </trkpt>
      <trkpt lat="47.61773" lon="-2.15436">
        <ele>83</ele>
        <time>2023-11-11T23:23:30Z</time>
      </trkpt>
      <trkpt lat="47.61786" lon="-2.15419">
        <ele>85</ele>
        <time>2023-11-11T23:23:53Z</time>
      </trkpt>
      <trkpt lat="47.61795" lon="-2.15395">
        <ele>85</ele>
        <time>2023-11-11T23:24:18Z</time>
      </trkpt>
      <trkpt lat="47.61796" lon="-2.15368">
        <ele>84</ele>
        <time>2023-11-11T23:24:42Z</time>
      </trkpt>
      <trkpt lat="47.61803" lon="-2.15341">
        <ele>84</ele>
        <time>2023-11-11T23:25:08Z</time>
      </trkpt>
      <trkpt lat="47.61816" lon="-2.15321">
        <ele>84</ele>
        <time>2023-11-11T23:25:33Z</time>
      </trkpt>
      <trkpt lat="47.61829" lon="-2.1527">
        <ele>83</ele>
        <time>2023-11-11T23:26:22Z</time>
      </trkpt>
      <trkpt lat="47.61839" lon="-2.15247">
        <ele>83</ele>
        <time>2023-11-11T23:26:47Z</time>
      </trkpt>
      <trkpt lat="47.61843" lon="-2.1522">
        <ele>83</ele>
        <time>2023-11-11T23:27:12Z</time>
      </trkpt>
      <trkpt lat="47.61851" lon="-2.15196">
        <ele>82</ele>
        <time>2023-11-11T23:27:36Z</time>
      </trkpt>
      <trkpt lat="47.61856" lon="-2.15169">
        <ele>81</ele>
        <time>2023-11-11T23:28:01Z</time>
      </trkpt>
      <trkpt lat="47.61877" lon="-2.15123">
        <ele>79</ele>
        <time>2023-11-11T23:28:51Z</time>
      </trkpt>
      <trkpt lat="47.61895" lon="-2.15076">
        <ele>76</ele>
        <time>2023-11-11T23:29:40Z</time>
      </trkpt>
      <trkpt lat="47.61899" lon="-2.1505">
        <ele>76</ele>
        <time>2023-11-11T23:30:04Z</time>
      </trkpt>
      <trkpt lat="47.6196" lon="-2.14788">
        <ele>73</ele>
        <time>2023-11-11T23:34:13Z</time>
      </trkpt>
      <trkpt lat="47.61963" lon="-2.1476">
        <ele>73</ele>
        <time>2023-11-11T23:34:39Z</time>
      </trkpt>
      <trkpt lat="47.61957" lon="-2.14649">
        <ele>73</ele>
        <time>2023-11-11T23:36:19Z</time>
      </trkpt>
      <trkpt lat="47.6196" lon="-2.14593">
        <ele>72</ele>
        <time>2023-11-11T23:37:09Z</time>
      </trkpt>
      <trkpt lat="47.61985" lon="-2.14347">
        <ele>60</ele>
        <time>2023-11-11T23:40:53Z</time>
      </trkpt>
      <trkpt lat="47.61994" lon="-2.14292">
        <ele>56</ele>
        <time>2023-11-11T23:41:44Z</time>
      </trkpt>
      <trkpt lat="47.61997" lon="-2.14236">
        <ele>52</ele>
        <time>2023-11-11T23:42:35Z</time>
      </trkpt>
      <trkpt lat="47.62005" lon="-2.14181">
        <ele>49</ele>
        <time>2023-11-11T23:43:25Z</time>
      </trkpt>
      <trkpt lat="47.62004" lon="-2.14153">
        <ele>48</ele>
        <time>2023-11-11T23:43:50Z</time>
      </trkpt>
      <trkpt lat="47.61998" lon="-2.14127">
        <ele>47</ele>
        <time>2023-11-11T23:44:15Z</time>
      </trkpt>
      <trkpt lat="47.61988" lon="-2.14105">
        <ele>46</ele>
        <time>2023-11-11T23:44:39Z</time>
      </trkpt>
      <trkpt lat="47.61986" lon="-2.14078">
        <ele>46</ele>
        <time>2023-11-11T23:45:03Z</time>
      </trkpt>
      <trkpt lat="47.61991" lon="-2.1405">
        <ele>45</ele>
        <time>2023-11-11T23:45:29Z</time>
      </trkpt>
      <trkpt lat="47.61992" lon="-2.14023">
        <ele>44</ele>
        <time>2023-11-11T23:45:54Z</time>
      </trkpt>
      <trkpt lat="47.61998" lon="-2.13996">
        <ele>43</ele>
        <time>2023-11-11T23:46:19Z</time>
      </trkpt>
      <trkpt lat="47.61999" lon="-2.1397">
        <ele>43</ele>
        <time>2023-11-11T23:46:43Z</time>
      </trkpt>
      <trkpt lat="47.62012" lon="-2.1386">
        <ele>42</ele>
        <time>2023-11-11T23:48:23Z</time>
      </trkpt>
      <trkpt lat="47.62027" lon="-2.1378">
        <ele>42</ele>
        <time>2023-11-11T23:49:38Z</time>
      </trkpt>
      <trkpt lat="47.62035" lon="-2.13754">
        <ele>42</ele>
        <time>2023-11-11T23:50:04Z</time>
      </trkpt>
      <trkpt lat="47.62038" lon="-2.13727">
        <ele>41</ele>
        <time>2023-11-11T23:50:28Z</time>
      </trkpt>
      <trkpt lat="47.62038" lon="-2.13699">
        <ele>39</ele>
        <time>2023-11-11T23:50:53Z</time>
      </trkpt>
      <trkpt lat="47.62046" lon="-2.13675">
        <ele>38</ele>
        <time>2023-11-11T23:51:18Z</time>
      </trkpt>
      <trkpt lat="47.62063" lon="-2.1357">
        <ele>36</ele>
        <time>2023-11-11T23:52:55Z</time>
      </trkpt>
      <trkpt lat="47.62064" lon="-2.13543">
        <ele>36</ele>
        <time>2023-11-11T23:53:19Z</time>
      </trkpt>
      <trkpt lat="47.62057" lon="-2.13489">
        <ele>37</ele>
        <time>2023-11-11T23:54:08Z</time>
      </trkpt>
      <trkpt lat="47.62054" lon="-2.13433">
        <ele>38</ele>
        <time>2023-11-11T23:54:59Z</time>
      </trkpt>
      <trkpt lat="47.6204" lon="-2.13353">
        <ele>41</ele>
        <time>2023-11-11T23:56:13Z</time>
      </trkpt>
      <trkpt lat="47.62039" lon="-2.13326">
        <ele>42</ele>
        <time>2023-11-11T23:56:38Z</time>
      </trkpt>
      <trkpt lat="47.62031" lon="-2.13301">
        <ele>43</ele>
        <time>2023-11-11T23:57:03Z</time>
      </trkpt>
      <trkpt lat="47.62026" lon="-2.13246">
        <ele>45</ele>
        <time>2023-11-11T23:57:52Z</time>
      </trkpt>
      <trkpt lat="47.62018" lon="-2.13221">
        <ele>46</ele>
        <time>2023-11-11T23:58:17Z</time>
      </trkpt>
      <trkpt lat="47.62014" lon="-2.13192">
        <ele>47</ele>
        <time>2023-11-11T23:58:44Z</time>
      </trkpt>
      <trkpt lat="47.62018" lon="-2.13166">
        <ele>47</ele>
        <time>2023-11-11T23:59:08Z</time>
      </trkpt>
      <trkpt lat="47.62027" lon="-2.13141">
        <ele>46</ele>
        <time>2023-11-11T23:59:33Z</time>
      </trkpt>
      <trkpt lat="47.62037" lon="-2.13088">
        <ele>45</ele>
        <time>2023-11-12T00:00:23Z</time>
      </trkpt>
      <trkpt lat="47.62043" lon="-2.13033">
        <ele>43</ele>
        <time>2023-11-12T00:01:13Z</time>
      </trkpt>
      <trkpt lat="47.6205" lon="-2.13006">
        <ele>42</ele>
        <time>2023-11-12T00:01:39Z</time>
      </trkpt>
      <trkpt lat="47.62061" lon="-2.12983">
        <ele>41</ele>
        <time>2023-11-12T00:02:04Z</time>
      </trkpt>
      <trkpt lat="47.62073" lon="-2.12931">
        <ele>40</ele>
        <time>2023-11-12T00:02:54Z</time>
      </trkpt>
      <trkpt lat="47.62081" lon="-2.12877">
        <ele>38</ele>
        <time>2023-11-12T00:03:44Z</time>
      </trkpt>
      <trkpt lat="47.62089" lon="-2.12795">
        <ele>35</ele>
        <time>2023-11-12T00:04:58Z</time>
      </trkpt>
      <trkpt lat="47.62094" lon="-2.12769">
        <ele>34</ele>
        <time>2023-11-12T00:05:22Z</time>
      </trkpt>
      <trkpt lat="47.62101" lon="-2.12411">
        <ele>33</ele>
        <time>2023-11-12T00:10:45Z</time>
      </trkpt>
      <trkpt lat="47.62098" lon="-2.12385">
        <ele>32</ele>
        <time>2023-11-12T00:11:08Z</time>
      </trkpt>
      <trkpt lat="47.6208" lon="-2.12391">
        <ele>34</ele>
        <time>2023-11-12T00:11:33Z</time>
      </trkpt>
      <trkpt lat="47.62025" lon="-2.12403">
        <ele>37</ele>
        <time>2023-11-12T00:12:47Z</time>
      </trkpt>
      <trkpt lat="47.6197" lon="-2.1241">
        <ele>44</ele>
        <time>2023-11-12T00:14:01Z</time>
      </trkpt>
      <trkpt lat="47.61934" lon="-2.12419">
        <ele>50</ele>
        <time>2023-11-12T00:14:50Z</time>
      </trkpt>
      <trkpt lat="47.61916" lon="-2.12419">
        <ele>53</ele>
        <time>2023-11-12T00:15:14Z</time>
      </trkpt>
      <trkpt lat="47.61908" lon="-2.12395">
        <ele>55</ele>
        <time>2023-11-12T00:15:38Z</time>
      </trkpt>
      <trkpt lat="47.61911" lon="-2.12341">
        <ele>57</ele>
        <time>2023-11-12T00:16:26Z</time>
      </trkpt>
      <trkpt lat="47.61906" lon="-2.12314">
        <ele>59</ele>
        <time>2023-11-12T00:16:52Z</time>
      </trkpt>
      <trkpt lat="47.61909" lon="-2.12258">
        <ele>60</ele>
        <time>2023-11-12T00:17:42Z</time>
      </trkpt>
      <trkpt lat="47.61929" lon="-2.12182">
        <ele>56</ele>
        <time>2023-11-12T00:18:55Z</time>
      </trkpt>
      <trkpt lat="47.61941" lon="-2.12074">
        <ele>54</ele>
        <time>2023-11-12T00:20:34Z</time>
      </trkpt>
      <trkpt lat="47.61952" lon="-2.12021">
        <ele>49</ele>
        <time>2023-11-12T00:21:24Z</time>
      </trkpt>
      <trkpt lat="47.61963" lon="-2.12">
        <ele>47</ele>
        <time>2023-11-12T00:21:48Z</time>
      </trkpt>
      <trkpt lat="47.61955" lon="-2.11975">
        <ele>47</ele>
        <time>2023-11-12T00:22:13Z</time>
      </trkpt>
      <trkpt lat="47.6193" lon="-2.11932">
        <ele>47</ele>
        <time>2023-11-12T00:23:04Z</time>
      </trkpt>
      <trkpt lat="47.61917" lon="-2.11914">
        <ele>47</ele>
        <time>2023-11-12T00:23:27Z</time>
      </trkpt>
      <trkpt lat="47.61913" lon="-2.11887">
        <ele>47</ele>
        <time>2023-11-12T00:23:52Z</time>
      </trkpt>
      <trkpt lat="47.61932" lon="-2.11841">
        <ele>45</ele>
        <time>2023-11-12T00:24:41Z</time>
      </trkpt>
      <trkpt lat="47.61947" lon="-2.11791">
        <ele>40</ele>
        <time>2023-11-12T00:25:30Z</time>
      </trkpt>
      <trkpt lat="47.61957" lon="-2.11769">
        <ele>37</ele>
        <time>2023-11-12T00:25:54Z</time>
      </trkpt>
      <trkpt lat="47.6197" lon="-2.11748">
        <ele>35</ele>
        <time>2023-11-12T00:26:20Z</time>
      </trkpt>
      <trkpt lat="47.62006" lon="-2.11732">
        <ele>31</ele>
        <time>2023-11-12T00:27:10Z</time>
      </trkpt>
      <trkpt lat="47.6209" lon="-2.11676">
        <ele>24</ele>
        <time>2023-11-12T00:29:13Z</time>
      </trkpt>
      <trkpt lat="47.62128" lon="-2.1167">
        <ele>22</ele>
        <time>2023-11-12T00:30:04Z</time>
      </trkpt>
      <trkpt lat="47.62145" lon="-2.11661">
        <ele>22</ele>
        <time>2023-11-12T00:30:28Z</time>
      </trkpt>
      <trkpt lat="47.62159" lon="-2.11642">
        <ele>22</ele>
        <time>2023-11-12T00:30:53Z</time>
      </trkpt>
      <trkpt lat="47.6212" lon="-2.11548">
        <ele>21</ele>
        <time>2023-11-12T00:32:32Z</time>
      </trkpt>
      <trkpt lat="47.62091" lon="-2.11448">
        <ele>16</ele>
        <time>2023-11-12T00:34:10Z</time>
      </trkpt>
      <trkpt lat="47.62078" lon="-2.11429">
        <ele>16</ele>
        <time>2023-11-12T00:34:35Z</time>
      </trkpt>
      <trkpt lat="47.62059" lon="-2.11431">
        <ele>15</ele>
        <time>2023-11-12T00:35:00Z</time>
      </trkpt>
      <trkpt lat="47.62055" lon="-2.11404">
        <ele>14</ele>
        <time>2023-11-12T00:35:25Z</time>
      </trkpt>
      <trkpt lat="47.62054" lon="-2.11348">
        <ele>13</ele>
        <time>2023-11-12T00:36:15Z</time>
      </trkpt>
      <trkpt lat="47.6206" lon="-2.11323">
        <ele>13</ele>
        <time>2023-11-12T00:36:39Z</time>
      </trkpt>
      <trkpt lat="47.62057" lon="-2.11296">
        <ele>12</ele>
        <time>2023-11-12T00:37:04Z</time>
      </trkpt>
      <trkpt lat="47.62041" lon="-2.11282">
        <ele>12</ele>
        <time>2023-11-12T00:37:29Z</time>
      </trkpt>
      <trkpt lat="47.62022" lon="-2.11282">
        <ele>12</ele>
        <time>2023-11-12T00:37:54Z</time>
      </trkpt>
      <trkpt lat="47.62005" lon="-2.11274">
        <ele>12</ele>
        <time>2023-11-12T00:38:18Z</time>
      </trkpt>
      <trkpt lat="47.62002" lon="-2.11248">
        <ele>11</ele>
        <time>2023-11-12T00:38:41Z</time>
      </trkpt>
      <trkpt lat="47.62003" lon="-2.11221">
        <ele>10</ele>
        <time>2023-11-12T00:39:06Z</time>
      </trkpt>
      <trkpt lat="47.61987" lon="-2.11207">
        <ele>10</ele>
        <time>2023-11-12T00:39:31Z</time>
      </trkpt>
      <trkpt lat="47.61968" lon="-2.11203">
        <ele>10</ele>
        <time>2023-11-12T00:39:56Z</time>
      </trkpt>
      <trkpt lat="47.61952" lon="-2.11215">
        <ele>10</ele>
        <time>2023-11-12T00:40:20Z</time>
      </trkpt>
      <trkpt lat="47.61942" lon="-2.11178">
        <ele>9</ele>
        <time>2023-11-12T00:40:56Z</time>
      </trkpt>
      <trkpt lat="47.61928" lon="-2.1116">
        <ele>9</ele>
        <time>2023-11-12T00:41:21Z</time>
      </trkpt>
      <trkpt lat="47.61952" lon="-2.11086">
        <ele>8</ele>
        <time>2023-11-12T00:42:35Z</time>
      </trkpt>
      <trkpt lat="47.61954" lon="-2.11059">
        <ele>8</ele>
        <time>2023-11-12T00:42:59Z</time>
      </trkpt>
      <trkpt lat="47.61946" lon="-2.11034">
        <ele>8</ele>
        <time>2023-11-12T00:43:24Z</time>
      </trkpt>
      <trkpt lat="47.61931" lon="-2.11021">
        <ele>8</ele>
        <time>2023-11-12T00:43:47Z</time>
      </trkpt>
      <trkpt lat="47.61912" lon="-2.11021">
        <ele>8</ele>
        <time>2023-11-12T00:44:12Z</time>
      </trkpt>
      <trkpt lat="47.61875" lon="-2.11035">
        <ele>8</ele>
        <time>2023-11-12T00:45:03Z</time>
      </trkpt>
      <trkpt lat="47.61857" lon="-2.11038">
        <ele>8</ele>
        <time>2023-11-12T00:45:28Z</time>
      </trkpt>
      <trkpt lat="47.61837" lon="-2.11038">
        <ele>8</ele>
        <time>2023-11-12T00:45:54Z</time>
      </trkpt>
      <trkpt lat="47.61801" lon="-2.11051">
        <ele>8</ele>
        <time>2023-11-12T00:46:44Z</time>
      </trkpt>
      <trkpt lat="47.61813" lon="-2.11072">
        <ele>8</ele>
        <time>2023-11-12T00:47:08Z</time>
      </trkpt>
      <trkpt lat="47.6181" lon="-2.11099">
        <ele>8</ele>
        <time>2023-11-12T00:47:33Z</time>
      </trkpt>
      <trkpt lat="47.61809" lon="-2.11154">
        <ele>8</ele>
        <time>2023-11-12T00:48:23Z</time>
      </trkpt>
      <trkpt lat="47.61811" lon="-2.11209">
        <ele>9</ele>
        <time>2023-11-12T00:49:12Z</time>
      </trkpt>
      <trkpt lat="47.61802" lon="-2.11231">
        <ele>10</ele>
        <time>2023-11-12T00:49:35Z</time>
      </trkpt>
      <trkpt lat="47.61783" lon="-2.11234">
        <ele>10</ele>
        <time>2023-11-12T00:50:01Z</time>
      </trkpt>
      <trkpt lat="47.61728" lon="-2.1122">
        <ele>10</ele>
        <time>2023-11-12T00:51:15Z</time>
      </trkpt>
      <trkpt lat="47.61672" lon="-2.11225">
        <ele>10</ele>
        <time>2023-11-12T00:52:30Z</time>
      </trkpt>
      <trkpt lat="47.61636" lon="-2.11222">
        <ele>10</ele>
        <time>2023-11-12T00:53:18Z</time>
      </trkpt>
      <trkpt lat="47.6158" lon="-2.11226">
        <ele>10</ele>
        <time>2023-11-12T00:54:33Z</time>
      </trkpt>
      <trkpt lat="47.61561" lon="-2.11223">
        <ele>10</ele>
        <time>2023-11-12T00:54:58Z</time>
      </trkpt>
      <trkpt lat="47.61543" lon="-2.11213">
        <ele>9</ele>
        <time>2023-11-12T00:55:24Z</time>
      </trkpt>
      <trkpt lat="47.61525" lon="-2.11213">
        <ele>9</ele>
        <time>2023-11-12T00:55:48Z</time>
      </trkpt>
      <trkpt lat="47.6151" lon="-2.11198">
        <ele>8</ele>
        <time>2023-11-12T00:56:12Z</time>
      </trkpt>
      <trkpt lat="47.61493" lon="-2.11189">
        <ele>8</ele>
        <time>2023-11-12T00:56:36Z</time>
      </trkpt>
      <trkpt lat="47.61475" lon="-2.11198">
        <ele>8</ele>
        <time>2023-11-12T00:57:02Z</time>
      </trkpt>
      <trkpt lat="47.61368" lon="-2.11232">
        <ele>9</ele>
        <time>2023-11-12T00:59:28Z</time>
      </trkpt>
      <trkpt lat="47.61352" lon="-2.11246">
        <ele>9</ele>
        <time>2023-11-12T00:59:53Z</time>
      </trkpt>
      <trkpt lat="47.61276" lon="-2.11325">
        <ele>11</ele>
        <time>2023-11-12T01:01:56Z</time>
      </trkpt>
      <trkpt lat="47.61257" lon="-2.11325">
        <ele>11</ele>
        <time>2023-11-12T01:02:22Z</time>
      </trkpt>
      <trkpt lat="47.61222" lon="-2.11306">
        <ele>10</ele>
        <time>2023-11-12T01:03:11Z</time>
      </trkpt>
      <trkpt lat="47.61203" lon="-2.11303">
        <ele>10</ele>
        <time>2023-11-12T01:03:37Z</time>
      </trkpt>
      <trkpt lat="47.61185" lon="-2.11295">
        <ele>10</ele>
        <time>2023-11-12T01:04:02Z</time>
      </trkpt>
      <trkpt lat="47.61166" lon="-2.11291">
        <ele>10</ele>
        <time>2023-11-12T01:04:28Z</time>
      </trkpt>
      <trkpt lat="47.6111" lon="-2.11287">
        <ele>9</ele>
        <time>2023-11-12T01:05:42Z</time>
      </trkpt>
      <trkpt lat="47.61097" lon="-2.11307">
        <ele>9</ele>
        <time>2023-11-12T01:06:07Z</time>
      </trkpt>
      <trkpt lat="47.61079" lon="-2.11385">
        <ele>10</ele>
        <time>2023-11-12T01:07:22Z</time>
      </trkpt>
      <trkpt lat="47.61064" lon="-2.114">
        <ele>11</ele>
        <time>2023-11-12T01:07:46Z</time>
      </trkpt>
      <trkpt lat="47.61046" lon="-2.11396">
        <ele>11</ele>
        <time>2023-11-12T01:08:10Z</time>
      </trkpt>
      <trkpt lat="47.61047" lon="-2.11369">
        <ele>11</ele>
        <time>2023-11-12T01:08:34Z</time>
      </trkpt>
      <trkpt lat="47.61022" lon="-2.11328">
        <ele>10</ele>
        <time>2023-11-12T01:09:24Z</time>
      </trkpt>
      <trkpt lat="47.61008" lon="-2.11276">
        <ele>10</ele>
        <time>2023-11-12T01:10:14Z</time>
      </trkpt>
      <trkpt lat="47.60993" lon="-2.11262">
        <ele>10</ele>
        <time>2023-11-12T01:10:38Z</time>
      </trkpt>
      <trkpt lat="47.60966" lon="-2.11299">
        <ele>11</ele>
        <time>2023-11-12T01:11:27Z</time>
      </trkpt>
      <trkpt lat="47.60921" lon="-2.11349">
        <ele>14</ele>
        <time>2023-11-12T01:12:42Z</time>
      </trkpt>
      <trkpt lat="47.60904" lon="-2.11361">
        <ele>15</ele>
        <time>2023-11-12T01:13:07Z</time>
      </trkpt>
      <trkpt lat="47.60869" lon="-2.1138">
        <ele>17</ele>
        <time>2023-11-12T01:13:57Z</time>
      </trkpt>
      <trkpt lat="47.60833" lon="-2.11395">
        <ele>19</ele>
        <time>2023-11-12T01:14:47Z</time>
      </trkpt>
      <trkpt lat="47.60799" lon="-2.11418">
        <ele>21</ele>
        <time>2023-11-12T01:15:37Z</time>
      </trkpt>
      <trkpt lat="47.6077" lon="-2.1145">
        <ele>24</ele>
        <time>2023-11-12T01:16:25Z</time>
      </trkpt>
      <trkpt lat="47.60744" lon="-2.11488">
        <ele>29</ele>
        <time>2023-11-12T01:17:14Z</time>
      </trkpt>
      <trkpt lat="47.60728" lon="-2.11503">
        <ele>31</ele>
        <time>2023-11-12T01:17:39Z</time>
      </trkpt>
      <trkpt lat="47.60713" lon="-2.1149">
        <ele>31</ele>
        <time>2023-11-12T01:18:02Z</time>
      </trkpt>
      <trkpt lat="47.60674" lon="-2.11365">
        <ele>27</ele>
        <time>2023-11-12T01:20:06Z</time>
      </trkpt>
      <trkpt lat="47.60668" lon="-2.11339">
        <ele>26</ele>
        <time>2023-11-12T01:20:31Z</time>
      </trkpt>
      <trkpt lat="47.60642" lon="-2.11266">
        <ele>24</ele>
        <time>2023-11-12T01:21:45Z</time>
      </trkpt>
      <trkpt lat="47.60621" lon="-2.11218">
        <ele>21</ele>
        <time>2023-11-12T01:22:37Z</time>
      </trkpt>
      <trkpt lat="47.60597" lon="-2.11177">
        <ele>18</ele>
        <time>2023-11-12T01:23:26Z</time>
      </trkpt>
      <trkpt lat="47.60575" lon="-2.11132">
        <ele>16</ele>
        <time>2023-11-12T01:24:16Z</time>
      </trkpt>
      <trkpt lat="47.60559" lon="-2.11082">
        <ele>14</ele>
        <time>2023-11-12T01:25:05Z</time>
      </trkpt>
      <trkpt lat="47.60512" lon="-2.10996">
        <ele>13</ele>
        <time>2023-11-12T01:26:45Z</time>
      </trkpt>
      <trkpt lat="47.60468" lon="-2.10944">
        <ele>12</ele>
        <time>2023-11-12T01:28:00Z</time>
      </trkpt>
      <trkpt lat="47.60435" lon="-2.10915">
        <ele>11</ele>
        <time>2023-11-12T01:28:51Z</time>
      </trkpt>
      <trkpt lat="47.60392" lon="-2.10863">
        <ele>12</ele>
        <time>2023-11-12T01:30:05Z</time>
      </trkpt>
      <trkpt lat="47.60375" lon="-2.10849">
        <ele>13</ele>
        <time>2023-11-12T01:30:31Z</time>
      </trkpt>
      <trkpt lat="47.60338" lon="-2.10852">
        <ele>17</ele>
        <time>2023-11-12T01:31:21Z</time>
      </trkpt>
      <trkpt lat="47.60285" lon="-2.1083">
        <ele>24</ele>
        <time>2023-11-12T01:32:34Z</time>
      </trkpt>
      <trkpt lat="47.60202" lon="-2.10769">
        <ele>26</ele>
        <time>2023-11-12T01:34:38Z</time>
      </trkpt>
      <trkpt lat="47.6017" lon="-2.10741">
        <ele>25</ele>
        <time>2023-11-12T01:35:27Z</time>
      </trkpt>
      <trkpt lat="47.60153" lon="-2.1073">
        <ele>24</ele>
        <time>2023-11-12T01:35:52Z</time>
      </trkpt>
      <trkpt lat="47.60135" lon="-2.10723">
        <ele>23</ele>
        <time>2023-11-12T01:36:17Z</time>
      </trkpt>
      <trkpt lat="47.60103" lon="-2.10658">
        <ele>19</ele>
        <time>2023-11-12T01:37:29Z</time>
      </trkpt>
      <trkpt lat="47.60077" lon="-2.10619">
        <ele>17</ele>
        <time>2023-11-12T01:38:19Z</time>
      </trkpt>
      <trkpt lat="47.60049" lon="-2.10585">
        <ele>15</ele>
        <time>2023-11-12T01:39:07Z</time>
      </trkpt>
      <trkpt lat="47.59988" lon="-2.10523">
        <ele>14</ele>
        <time>2023-11-12T01:40:46Z</time>
      </trkpt>
      <trkpt lat="47.59975" lon="-2.10504">
        <ele>14</ele>
        <time>2023-11-12T01:41:10Z</time>
      </trkpt>
      <trkpt lat="47.59955" lon="-2.10398">
        <ele>11</ele>
        <time>2023-11-12T01:42:49Z</time>
      </trkpt>
      <trkpt lat="47.59955" lon="-2.10371">
        <ele>11</ele>
        <time>2023-11-12T01:43:13Z</time>
      </trkpt>
      <trkpt lat="47.59964" lon="-2.10317">
        <ele>10</ele>
        <time>2023-11-12T01:44:03Z</time>
      </trkpt>
      <trkpt lat="47.59964" lon="-2.10289">
        <ele>10</ele>
        <time>2023-11-12T01:44:29Z</time>
      </trkpt>
      <trkpt lat="47.59975" lon="-2.10208">
        <ele>7</ele>
        <time>2023-11-12T01:45:43Z</time>
      </trkpt>
      <trkpt lat="47.59968" lon="-2.10183">
        <ele>8</ele>
        <time>2023-11-12T01:46:07Z</time>
      </trkpt>
      <trkpt lat="47.59963" lon="-2.10127">
        <ele>7</ele>
        <time>2023-11-12T01:46:58Z</time>
      </trkpt>
      <trkpt lat="47.59954" lon="-2.10102">
        <ele>7</ele>
        <time>2023-11-12T01:47:24Z</time>
      </trkpt>
      <trkpt lat="47.5995" lon="-2.10076">
        <ele>7</ele>
        <time>2023-11-12T01:47:48Z</time>
      </trkpt>
      <trkpt lat="47.59949" lon="-2.1002">
        <ele>9</ele>
        <time>2023-11-12T01:48:38Z</time>
      </trkpt>
      <trkpt lat="47.59959" lon="-2.09967">
        <ele>10</ele>
        <time>2023-11-12T01:49:28Z</time>
      </trkpt>
      <trkpt lat="47.59958" lon="-2.0994">
        <ele>11</ele>
        <time>2023-11-12T01:49:52Z</time>
      </trkpt>
      <trkpt lat="47.59961" lon="-2.09912">
        <ele>11</ele>
        <time>2023-11-12T01:50:17Z</time>
      </trkpt>
      <trkpt lat="47.59956" lon="-2.09858">
        <ele>9</ele>
        <time>2023-11-12T01:51:06Z</time>
      </trkpt>
      <trkpt lat="47.59939" lon="-2.09778">
        <ele>6</ele>
        <time>2023-11-12T01:52:22Z</time>
      </trkpt>
      <trkpt lat="47.59923" lon="-2.09766">
        <ele>6</ele>
        <time>2023-11-12T01:52:46Z</time>
      </trkpt>
      <trkpt lat="47.59905" lon="-2.09769">
        <ele>6</ele>
        <time>2023-11-12T01:53:10Z</time>
      </trkpt>
      <trkpt lat="47.59889" lon="-2.09783">
        <ele>7</ele>
        <time>2023-11-12T01:53:35Z</time>
      </trkpt>
      <trkpt lat="47.59879" lon="-2.09806">
        <ele>8</ele>
        <time>2023-11-12T01:53:59Z</time>
      </trkpt>
      <trkpt lat="47.59853" lon="-2.09847">
        <ele>9</ele>
        <time>2023-11-12T01:54:50Z</time>
      </trkpt>
    </trkseg>
  </trk>
</gpx>